Deelen, Netherlands

7:21 AM CET on February 23, 2017 (GMT +0100)
Deelen Air Base

Weather History for EHDL - November, 2013

Change the Weather History Date:

Sunday, November 24, 2013

  Actual Average Record
Temperature  
Mean Temperature 38 °F -  
Max Temperature 46 °F 42 °F 53 °F (2003)
Min Temperature 30 °F 34 °F 19 °F (2008)
Degree Days  
Heating Degree Days 27    
Moisture  
Dew Point 37 °F    
Average Humidity 88    
Maximum Humidity 100    
Minimum Humidity 66    
Precipitation  
Precipitation 0.00 in - - ()
Sea Level Pressure  
Sea Level Pressure 30.24 in    
Wind  
Wind Speed 4 mph ()    
Max Wind Speed 15 mph    
Max Gust Speed -    
Visibility 5.3 miles    
Events Fog , Rain    
Averages and records for this station are not official NWS values.
T = Trace of Precipitation, MM = Missing Value Source: Averaged Metar Reports

Daily Weather History Graph

Daily Weather History Graph

Search for Another Location

Airport or City:

Trip Planner

Search our weather history database for the weather conditions in past years. The results will help you decide how hot, cold, wet, or windy it might be!

Date:

Astronomy

Nov. 24, 2013 Rise Set
Actual Time 8:11 AM CET 4:34 PM CET
Civil Twilight 7:33 AM CET 5:12 PM CET
Nautical Twilight 6:50 AM CET 5:55 PM CET
Astronomical Twilight 6:10 AM CET 6:35 PM CET
Moon 11:07 PM CET (11/24) 12:31 PM CET (11/24)
Length of Visible Light 9h 39m
Length of Day
8h 22m
Waning Gibbous, 63% of the Moon is Illuminated
Nov 24
Waning Gibbous
Nov 25
Last Quarter
Dec 3
New
Dec 9
First Quarter
Dec 17
Full

Hourly Weather History & Observations

Time (CET) Temp. Windchill Dew Point Humidity Pressure Visibility Wind Dir Wind Speed Gust Speed Precip Events Conditions
12:25 AM 30.2 °F - 30.2 °F 100% 30.18 in 6.2 mi NNW 1.2 mph - N/A   Overcast
12:55 AM 32.0 °F - 30.2 °F 93% 30.18 in 6.2 mi ESE 1.2 mph - N/A   Overcast
1:25 AM 32.0 °F - 32.0 °F 100% 30.18 in 6.2 mi NNE 1.2 mph - N/A   Overcast
1:55 AM 32.0 °F - 32.0 °F 100% 30.15 in 6.2 mi NNE 1.2 mph - N/A   Overcast
2:25 AM 33.8 °F - 32.0 °F 93% 30.18 in 6.2 mi NNW 1.2 mph - N/A   Overcast
2:55 AM 33.8 °F - 32.0 °F 93% 30.18 in 6.2 mi West 1.2 mph - N/A   Overcast
3:25 AM 33.8 °F - 33.8 °F 100% 30.15 in 6.2 mi SW 1.2 mph - N/A   Overcast
3:55 AM 33.8 °F - 33.8 °F 100% 30.18 in 6.2 mi West 1.2 mph - N/A   Overcast
4:25 AM 35.6 °F - 33.8 °F 93% 30.15 in 6.2 mi North 2.3 mph - N/A   Mostly Cloudy
4:55 AM 37.4 °F - 35.6 °F 93% 30.18 in 5.6 mi NNW 1.2 mph - N/A   Overcast
5:25 AM 37.4 °F 34.9 °F 37.4 °F 100% 30.18 in 1.7 mi NNW 3.5 mph - N/A   Light Drizzle
5:55 AM 37.4 °F 33.8 °F 37.4 °F 100% 30.18 in - NNW 4.6 mph - N/A   Overcast
6:25 AM 37.4 °F 33.8 °F 37.4 °F 100% 30.18 in 1.4 mi NW 4.6 mph - N/A   Mostly Cloudy
6:55 AM 37.4 °F 34.9 °F 37.4 °F 100% 30.18 in 1.3 mi NW 3.5 mph - N/A   Overcast
7:25 AM 39.2 °F - 39.2 °F 100% 30.18 in 1.1 mi NNW 1.2 mph - N/A   Overcast
7:55 AM 39.2 °F - 39.2 °F 100% 30.18 in 0.4 mi West 1.2 mph - N/A Fog Fog
8:25 AM 39.2 °F - 39.2 °F 100% 30.18 in 0.3 mi NNE 2.3 mph - N/A Fog Fog
8:55 AM 39.2 °F 37.0 °F 39.2 °F 100% 30.21 in 1.7 mi NNW 3.5 mph - N/A   Mostly Cloudy
9:25 AM 41.0 °F 38.0 °F 39.2 °F 93% 30.21 in 1.7 mi NNW 4.6 mph - N/A Rain Light Rain
9:55 AM 41.0 °F 38.0 °F 41.0 °F 100% 30.21 in 3.1 mi WNW 4.6 mph - N/A   Light Drizzle
10:25 AM 42.8 °F 40.1 °F 42.8 °F 100% 30.21 in 6.2 mi NNW 4.6 mph - N/A   Mostly Cloudy
10:55 AM 44.6 °F 40.2 °F 42.8 °F 93% 30.21 in 6.2 mi NNW 8.1 mph - N/A   Mostly Cloudy
11:25 AM 44.6 °F 38.4 °F 42.8 °F 93% 30.24 in 6.2 mi North 12.7 mph - N/A   Drizzle
11:55 AM 44.6 °F 38.8 °F 39.2 °F 81% 30.24 in 6.2 mi North 11.5 mph - N/A   Overcast
12:25 PM 46.4 °F 41.5 °F 41.0 °F 81% 30.24 in 6.2 mi North 10.4 mph - N/A   Overcast
12:55 PM 46.4 °F 41.5 °F 39.2 °F 76% 30.24 in 6.2 mi North 10.4 mph - N/A   Overcast
1:25 PM 46.4 °F 40.4 °F 39.2 °F 76% 30.24 in 6.2 mi North 13.8 mph - N/A   Overcast
1:55 PM 46.4 °F 41.1 °F 37.4 °F 71% 30.24 in 6.2 mi North 11.5 mph - N/A   Overcast
2:25 PM 46.4 °F 40.7 °F 35.6 °F 66% 30.24 in 6.2 mi North 12.7 mph - N/A   Overcast
2:55 PM 44.6 °F 37.8 °F 35.6 °F 71% 30.24 in 6.2 mi North 15.0 mph - N/A   Mostly Cloudy
3:25 PM 44.6 °F 38.1 °F 35.6 °F 71% 30.24 in 6.2 mi North 13.8 mph - N/A   Overcast
3:55 PM 44.6 °F 38.8 °F 35.6 °F 71% 30.24 in 6.2 mi NNW 11.5 mph - N/A   Mostly Cloudy
4:25 PM 42.8 °F 36.2 °F 37.4 °F 81% 30.27 in 6.2 mi NNE 12.7 mph - N/A   Drizzle
4:55 PM 42.8 °F 37.5 °F 37.4 °F 81% 30.27 in 6.2 mi NNW 9.2 mph - N/A   Mostly Cloudy
5:25 PM 42.8 °F 36.2 °F 35.6 °F 76% 30.27 in 6.2 mi North 12.7 mph - N/A   Overcast
5:55 PM 42.8 °F 37.5 °F 35.6 °F 76% 30.30 in 6.2 mi North 9.2 mph - N/A   Overcast
6:25 PM 42.8 °F 38.0 °F 35.6 °F 76% 30.30 in 6.2 mi North 8.1 mph - N/A   Mostly Cloudy
6:55 PM 41.0 °F 35.2 °F 35.6 °F 81% 30.30 in 6.2 mi North 9.2 mph - N/A   Overcast
7:25 PM 41.0 °F 35.2 °F 35.6 °F 81% 30.33 in 6.2 mi North 9.2 mph - N/A   Overcast
7:55 PM 41.0 °F 36.4 °F 35.6 °F 81% 30.33 in 6.2 mi North 6.9 mph - N/A   Overcast
8:25 PM 41.0 °F 35.8 °F 35.6 °F 81% 30.33 in 6.2 mi NNW 8.1 mph - N/A   Overcast
8:55 PM 39.2 °F 33.0 °F 35.6 °F 87% 30.36 in 6.2 mi NNW 9.2 mph - N/A   Mostly Cloudy
9:25 PM 39.2 °F 33.6 °F 35.6 °F 87% 30.36 in 6.2 mi North 8.1 mph - N/A   Overcast
9:55 PM 39.2 °F 35.9 °F 35.6 °F 87% 30.36 in 6.2 mi North 4.6 mph - N/A   Mostly Cloudy
10:25 PM 39.2 °F 35.0 °F 35.6 °F 87% 30.36 in 6.2 mi NNW 5.8 mph - N/A   Overcast
10:55 PM 39.2 °F 35.0 °F 35.6 °F 87% 30.36 in 6.2 mi NNW 5.8 mph - N/A   Overcast
11:25 PM 37.4 °F 34.9 °F 35.6 °F 93% 30.39 in 6.2 mi NNW 3.5 mph - N/A   Overcast
11:55 PM 37.4 °F 33.8 °F 35.6 °F 93% 30.39 in 6.2 mi NW 4.6 mph - N/A   Overcast